EW1232 Weather Reports


time (UTC)temp
F
wind
direction
speed
knots
gust
knots
rain 1hr
in
rain 24hr
in
rain mn
in
humidity
%
barometer
mb
20260903011021 82 193 0.9 3.5 0.00 0.00 0.00 73 1016.9
20260903010518 82 187 0.9 4.3 0.00 0.00 0.00 73 1016.9
20260903010042 83 0 1.7 4.3 0.00 0.00 0.00 72 1016.8
20260903005521 83 169 0.9 3.5 0.00 0.00 0.00 72 1016.8
20260903005022 83 198 0.9 3.5 0.00 0.00 0.00 71 1016.7
20260903004550 84 187 0.9 3.5 0.00 0.00 0.00 70 1016.7
20260903004023 84 0 0.0 3.5 0.00 0.00 0.00 70 1016.7
20260903003524 85 251 0.0 3.5 0.00 0.00 0.00 69 1016.8
20260903003059 85 205 0.9 3.5 0.00 0.00 0.00 69 1016.7
20260903002521 85 248 0.0 2.6 0.00 0.00 0.00 68 1016.7
20260903002019 86 0 0.0 3.5 0.00 0.00 0.00 68 1016.6
20260903001542 86 178 0.9 4.3 0.00 0.00 0.00 67 1016.6
20260903001021 87 178 0.9 4.3 0.00 0.00 0.00 66 1016.7
20260903000521 87 0 1.7 4.3 0.00 0.00 0.00 65 1016.7
20260903000053 87 178 0.9 2.6 0.00 0.00 0.00 65 1016.7
20260902235521 88 0 0.9 1.7 0.00 0.00 0.00 64 1016.6
20260902235019 88 193 0.0 2.6 0.00 0.00 0.00 63 1016.6
20260902234545 88 0 0.0 3.5 0.00 0.00 0.00 62 1016.7
20260902234018 88 0 0.9 4.3 0.00 0.00 0.00 62 1016.6
20260902233521 89 200 0.9 6.1 0.00 0.00 0.00 61 1016.7
20260902233042 89 234 0.9 6.1 0.00 0.00 0.00 61 1016.6
20260902232522 89 230 1.7 4.3 0.00 0.00 0.00 60 1016.6
20260902232021 90 226 1.7 8.7 0.00 0.00 0.00 59 1016.5
20260902231546 90 187 1.7 8.7 0.00 0.00 0.00 58 1016.6
20260902231021 91 252 2.6 8.7 0.00 0.00 0.00 57 1016.7
20260902230520 91 248 2.6 7.0 0.00 0.00 0.00 58 1016.6
20260902230047 91 227 2.6 7.0 0.00 0.00 0.00 57 1016.7
20260902225518 91 0 1.7 6.1 0.00 0.00 0.00 58 1016.7
20260902225027 92 265 1.7 6.1 0.00 0.00 0.00 57 1016.7
20260902224602 92 221 0.9 6.1 0.00 0.00 0.00 56 1016.7
20260902224019 92 0 2.6 7.0 0.00 0.00 0.00 55 1016.8
20260902223518 92 265 2.6 7.0 0.00 0.00 0.00 55 1016.8
20260902223044 93 255 1.7 8.7 0.00 0.00 0.00 56 1016.8
20260902222519 93 259 2.6 8.7 0.00 0.00 0.00 55 1016.8
20260902222024 93 282 3.5 7.8 0.00 0.00 0.00 55 1016.8
20260902221544 93 195 2.6 7.8 0.00 0.00 0.00 54 1016.8
20260902221021 93 246 1.7 10.4 0.00 0.00 0.00 54 1016.8
20260902220523 93 51 2.6 10.4 0.00 0.00 0.00 54 1016.8
20260902220046 94 162 3.5 7.0 0.00 0.00 0.00 54 1017.0
20260902215518 94 251 0.9 6.1 0.00 0.00 0.00 55 1016.9
20260902215024 94 144 2.6 7.8 0.00 0.00 0.00 54 1016.9
20260902214610 93 236 0.9 8.7 0.00 0.00 0.00 56 1016.9
20260902214021 93 255 2.6 8.7 0.00 0.00 0.00 54 1017.0
20260902213524 93 250 3.5 8.7 0.00 0.00 0.00 54 1017.0
20260902213042 93 51 0.9 7.0 0.00 0.00 0.00 59 1017.0
20260902212521 93 212 0.9 7.0 0.00 0.00 0.00 56 1016.9
20260902212027 93 208 2.6 7.0 0.00 0.00 0.00 55 1017.0
20260902211540 93 171 2.6 7.0 0.00 0.00 0.00 55 1017.1
20260902211018 94 265 2.6 7.0 0.00 0.00 0.00 54 1017.1
20260902210523 93 235 2.6 10.4 0.00 0.00 0.00 54 1017.1
20260902210047 94 265 1.7 10.4 0.00 0.00 0.00 53 1017.0
20260902205521 94 238 4.3 10.4 0.00 0.00 0.00 51 1017.2
20260902205021 95 254 2.6 8.7 0.00 0.00 0.00 51 1017.2
20260902204543 95 239 1.7 8.7 0.00 0.00 0.00 54 1017.2
20260902204025 95 309 1.7 8.7 0.00 0.00 0.00 53 1017.3
20260902203521 94 265 3.5 9.6 0.00 0.00 0.00 52 1017.3
20260902203043 95 265 3.5 9.6 0.00 0.00 0.00 53 1017.3
20260902202520 95 238 2.6 6.1 0.00 0.00 0.00 51 1017.3
20260902202024 95 233 1.7 7.8 0.00 0.00 0.00 53 1017.3
20260902201551 95 296 0.9 7.8 0.00 0.00 0.00 53 1017.3
20260902201018 95 30 1.7 7.8 0.00 0.00 0.00 52 1017.3
20260902200523 95 254 3.5 7.8 0.00 0.00 0.00 50 1017.4
20260902200037 95 309 2.6 7.8 0.00 0.00 0.00 52 1017.4
20260902195521 95 239 1.7 7.0 0.00 0.00 0.00 52 1017.5
20260902195020 95 261 0.9 7.0 0.00 0.00 0.00 53 1017.5
20260902194549 94 273 1.7 8.7 0.00 0.00 0.00 52 1017.7
20260902194018 94 289 2.6 14.8 0.00 0.00 0.00 49 1017.7
20260902193520 95 246 3.5 14.8 0.00 0.00 0.00 52 1017.6
20260902193043 94 232 1.7 9.6 0.00 0.00 0.00 53 1017.8
20260902192517 94 279 2.6 9.6 0.00 0.00 0.00 50 1017.8
20260902192020 94 254 2.6 8.7 0.00 0.00 0.00 52 1018.0
20260902191541 94 275 1.7 8.7 0.00 0.00 0.00 53 1018.0
20260902191024 94 273 2.6 13.0 0.00 0.00 0.00 52 1018.0
20260902190519 94 195 2.6 13.0 0.00 0.00 0.00 52 1018.1
20260902190039 94 239 2.6 7.8 0.00 0.00 0.00 55 1018.1
20260902185519 93 265 1.7 8.7 0.00 0.00 0.00 53 1018.2
20260902185023 93 9 2.6 10.4 0.00 0.00 0.00 54 1018.2
20260902184544 93 286 3.5 13.0 0.00 0.00 0.00 54 1018.2
20260902184018 93 255 3.5 13.0 0.00 0.00 0.00 52 1018.2
20260902183523 93 239 2.6 9.6 0.00 0.00 0.00 56 1018.3
20260902183043 93 250 3.5 11.3 0.00 0.00 0.00 55 1018.3
20260902182520 94 219 3.5 11.3 0.00 0.00 0.00 53 1018.3
20260902182021 94 246 2.6 11.3 0.00 0.00 0.00 53 1018.3
20260902181544 93 169 4.3 10.4 0.00 0.00 0.00 57 1018.3
20260902181018 93 146 1.7 7.0 0.00 0.00 0.00 60 1018.3
20260902180526 93 226 2.6 9.6 0.00 0.00 0.00 57 1018.4
20260902180047 93 336 2.6 9.6 0.00 0.00 0.00 56 1018.5
20260902175525 92 259 2.6 8.7 0.00 0.00 0.00 58 1018.6
20260902175024 92 265 3.5 8.7 0.00 0.00 0.00 55 1018.6
20260902174549 92 232 2.6 7.8 0.00 0.00 0.00 56 1018.8
20260902174024 92 243 2.6 7.8 0.00 0.00 0.00 60 1018.8
20260902173523 92 273 1.7 8.7 0.00 0.00 0.00 61 1018.9
20260902173043 92 165 3.5 8.7 0.00 0.00 0.00 60 1018.9
20260902172525 92 288 1.7 8.7 0.00 0.00 0.00 60 1019.1
20260902172023 91 226 1.7 7.0 0.00 0.00 0.00 60 1019.0
20260902171544 91 248 1.7 7.8 0.00 0.00 0.00 59 1019.1
20260902171024 91 282 1.7 7.8 0.00 0.00 0.00 59 1019.1
20260902170527 92 225 2.6 6.1 0.00 0.00 0.00 57 1019.1
20260902170042 92 288 1.7 5.2 0.00 0.00 0.00 61 1019.1
20260902165524 91 205 0.9 6.1 0.00 0.00 0.00 61 1019.1
20260902165019 91 85 0.9 11.3 0.00 0.00 0.00 60 1019.1
20260902164549 91 205 4.3 11.3 0.00 0.00 0.00 59 1019.2
20260902164024 91 195 3.5 8.7 0.00 0.00 0.00 59 1019.2
20260902163524 91 209 3.5 8.7 0.00 0.00 0.00 61 1019.2
20260902163044 91 221 1.7 9.6 0.00 0.00 0.00 62 1019.2
20260902162526 91 219 4.3 9.6 0.00 0.00 0.00 63 1019.3
20260902162024 90 200 2.6 7.8 0.00 0.00 0.00 64 1019.2
20260902161543 90 128 3.5 10.4 0.00 0.00 0.00 64 1019.2
20260902161028 90 234 3.5 10.4 0.00 0.00 0.00 63 1019.2
20260902160529 90 250 2.6 7.0 0.00 0.00 0.00 63 1019.2
20260902160040 89 228 1.7 7.8 0.00 0.00 0.00 65 1019.3
20260902155524 89 233 0.9 7.8 0.00 0.00 0.00 66 1019.3
20260902155025 89 238 2.6 9.6 0.00 0.00 0.00 64 1019.3
20260902154543 89 230 4.3 9.6 0.00 0.00 0.00 65 1019.4
20260902154024 89 196 1.7 8.7 0.00 0.00 0.00 67 1019.4
20260902153526 88 269 1.7 8.7 0.00 0.00 0.00 66 1019.5
20260902153042 88 298 1.7 7.8 0.00 0.00 0.00 67 1019.5
20260902152518 88 137 2.6 7.8 0.00 0.00 0.00 66 1019.4
20260902152019 88 202 3.5 7.8 0.00 0.00 0.00 67 1019.5
20260902151544 88 309 0.9 6.1 0.00 0.00 0.00 69 1019.5
20260902151026 87 256 1.7 6.1 0.00 0.00 0.00 68 1019.5
20260902150525 87 296 1.7 7.0 0.00 0.00 0.00 69 1019.5
20260902150042 87 232 1.7 7.0 0.00 0.00 0.00 69 1019.5
20260902145519 86 209 2.6 7.0 0.00 0.00 0.00 70 1019.5
20260902145020 86 165 0.9 7.0 0.00 0.00 0.00 71 1019.5
20260902144552 86 266 1.7 7.0 0.00 0.00 0.00 71 1019.5
20260902144022 85 232 2.6 7.8 0.00 0.00 0.00 69 1019.6
20260902143523 85 200 1.7 7.8 0.00 0.00 0.00 72 1019.5
20260902143041 85 237 1.7 6.1 0.00 0.00 0.00 71 1019.4
20260902142521 85 235 0.9 7.0 0.00 0.00 0.00 73 1019.5
20260902142019 84 239 1.7 7.0 0.00 0.00 0.00 73 1019.4
20260902141538 84 325 3.5 7.8 0.00 0.00 0.00 72 1019.5
20260902141018 84 254 1.7 7.8 0.00 0.00 0.00 74 1019.4
20260902140518 83 250 2.6 7.8 0.00 0.00 0.00 74 1019.3
20260902140043 83 262 2.6 7.8 0.00 0.00 0.00 75 1019.4
20260902135518 83 232 2.6 7.8 0.00 0.00 0.00 74 1019.4
20260902135019 82 269 1.7 8.7 0.00 0.00 0.00 76 1019.4
20260902134542 82 221 3.5 8.7 0.00 0.00 0.00 76 1019.5
20260902134017 81 243 1.7 7.0 0.00 0.00 0.00 78 1019.4
20260902133526 81 205 2.6 7.0 0.00 0.00 0.00 78 1019.5
20260902133054 81 254 1.7 4.3 0.00 0.00 0.00 80 1019.4
20260902132519 80 265 0.9 4.3 0.00 0.00 0.00 82 1019.4
20260902132024 79 26 1.7 5.2 0.00 0.00 0.00 82 1019.4
20260902131539 79 0 0.9 5.2 0.00 0.00 0.00 83 1019.4
20260902131019 78 273 1.7 4.3 0.00 0.00 0.00 85 1019.3
20260902130519 78 196 0.9 4.3 0.00 0.00 0.00 86 1019.4
20260902130039 77 212 1.7 6.1 0.00 0.00 0.00 87 1019.5
20260902125521 77 243 1.7 6.1 0.00 0.00 0.00 88 1019.5
20260902125018 76 205 1.7 7.0 0.00 0.00 0.00 89 1019.4
20260902124542 76 209 2.6 7.0 0.00 0.00 0.00 90 1019.4
20260902124018 75 265 2.6 7.0 0.00 0.00 0.00 91 1019.3
20260902123518 75 225 1.7 5.2 0.00 0.00 0.00 92 1019.4
20260902123042 74 198 0.9 4.3 0.00 0.00 0.00 92 1019.3
20260902122527 74 218 1.7 6.1 0.00 0.00 0.00 93 1019.1
20260902122018 74 225 1.7 6.1 0.00 0.00 0.00 93 1019.1
20260902121543 73 178 1.7 5.2 0.00 0.00 0.00 93 1019.2
20260902121022 73 146 0.9 4.3 0.00 0.00 0.00 93 1019.2
20260902120518 73 205 0.9 4.3 0.00 0.00 0.00 93 1019.1
20260902120043 73 156 0.9 5.2 0.00 0.00 0.00 93 1019.2
20260902115523 72 178 1.7 5.2 0.00 0.00 0.00 93 1019.1
20260902115018 72 178 0.9 3.5 0.00 0.00 0.00 93 1019.1
20260902114549 72 165 0.9 3.5 0.00 0.00 0.00 93 1019.0
20260902114021 72 115 0.9 3.5 0.00 0.00 0.00 93 1018.8
20260902113523 72 195 0.0 2.6 0.00 0.00 0.00 93 1018.7
20260902113052 72 0 0.9 3.5 0.00 0.00 0.00 93 1018.7
20260902112524 72 0 0.9 4.3 0.00 0.00 0.00 93 1018.6
20260902112024 72 0 0.0 4.3 0.00 0.00 0.00 93 1018.6
20260902111540 72 265 1.7 6.1 0.00 0.00 0.00 94 1018.6
20260902111023 72 153 1.7 6.1 0.00 0.00 0.00 94 1018.5
20260902110524 72 169 1.7 5.2 0.00 0.00 0.00 94 1018.5
20260902110042 72 153 1.7 5.2 0.00 0.00 0.00 94 1018.5
20260902105518 72 178 1.7 5.2 0.00 0.00 0.00 94 1018.5
20260902105026 72 193 1.7 5.2 0.00 0.00 0.00 94 1018.6
20260902104600 72 184 1.7 6.1 0.00 0.00 0.00 94 1018.6
20260902104024 72 207 3.5 6.1 0.00 0.00 0.00 94 1018.7
20260902103529 72 167 2.6 7.0 0.00 0.00 0.00 94 1018.6
20260902103040 72 187 2.6 7.8 0.00 0.00 0.00 94 1018.6
20260902102520 71 183 3.5 7.8 0.00 0.00 0.00 94 1018.6
20260902102019 71 178 2.6 5.2 0.00 0.00 0.00 95 1018.6
20260902101549 71 174 1.7 5.2 0.00 0.00 0.00 95 1018.5
20260902101024 71 171 1.7 4.3 0.00 0.00 0.00 95 1018.5
20260902100522 71 195 1.7 5.2 0.00 0.00 0.00 95 1018.5
20260902100042 71 201 1.7 5.2 0.00 0.00 0.00 95 1018.4
20260902095520 71 187 1.7 4.3 0.00 0.00 0.00 94 1018.4
20260902095020 71 178 1.7 4.3 0.00 0.00 0.00 94 1018.5
20260902094542 71 178 1.7 4.3 0.00 0.00 0.00 94 1018.4
20260902094024 71 185 1.7 4.3 0.00 0.00 0.00 95 1018.5
20260902093524 71 171 1.7 4.3 0.00 0.00 0.00 95 1018.4
20260902093044 71 160 1.7 4.3 0.00 0.00 0.00 95 1018.5
20260902092524 70 178 1.7 4.3 0.00 0.00 0.00 94 1018.5
20260902092024 70 184 1.7 4.3 0.00 0.00 0.00 94 1018.4
20260902091542 70 196 1.7 4.3 0.00 0.00 0.00 94 1018.4
20260902091023 70 188 0.0 3.5 0.00 0.00 0.00 94 1018.5
20260902090526 70 193 0.9 4.3 0.00 0.00 0.00 94 1018.3
20260902090042 70 205 0.9 4.3 0.00 0.00 0.00 94 1018.3
20260902085525 70 178 0.9 4.3 0.00 0.00 0.00 94 1018.2
20260902085025 70 0 0.0 2.6 0.00 0.00 0.00 94 1018.3
20260902084539 70 239 0.0 1.7 0.00 0.00 0.00 94 1018.2
20260902084024 70 153 0.0 1.7 0.00 0.00 0.00 94 1018.1
20260902083532 71 0 0.0 1.7 0.00 0.00 0.00 94 1018.0
20260902083101 71 178 0.0 1.7 0.00 0.00 0.00 94 1018.1
20260902082521 71 153 0.0 0.9 0.00 0.00 0.00 94 1018.2
20260902082019 71 0 0.0 0.9 0.00 0.00 0.00 94 1018.0
20260902081542 71 0 0.0 0.9 0.00 0.00 0.00 94 1018.1
20260902081020 71 0 0.0 0.9 0.00 0.00 0.00 94 1018.0
20260902080525 71 0 0.0 0.9 0.00 0.00 0.00 93 1018.0
20260902080043 71 0 0.0 0.9 0.00 0.00 0.00 93 1018.1
20260902075524 71 0 0.0 1.7 0.00 0.00 0.00 93 1018.0
20260902075021 71 0 0.0 1.7 0.00 0.00 0.00 93 1018.0
20260902074541 71 0 0.0 3.5 0.00 0.00 0.00 93 1017.9
20260902074018 71 158 0.9 3.5 0.00 0.00 0.00 93 1017.9
20260902073522 71 178 0.0 1.7 0.00 0.00 0.00 93 1018.0
20260902073041 71 178 0.0 0.9 0.00 0.00 0.00 93 1017.9
20260902072524 71 0 0.0 0.9 0.00 0.00 0.00 93 1018.0
20260902072020 71 0 0.0 0.9 0.00 0.00 0.00 93 1017.9
20260902071544 71 137 0.0 0.9 0.00 0.00 0.00 93 1017.9
20260902071019 71 153 0.0 0.9 0.00 0.00 0.00 93 1018.0
20260902070521 71 0 0.0 0.9 0.00 0.00 0.00 92 1017.9
20260902070044 72 0 0.0 0.9 0.00 0.00 0.00 93 1017.9
20260902065529 72 0 0.0 0.9 0.00 0.00 0.00 93 1017.9
20260902065022 72 0 0.0 0.9 0.00 0.00 0.00 92 1018.0
20260902064545 72 0 0.0 1.7 0.00 0.00 0.00 92 1018.0
20260902064024 72 0 0.0 1.7 0.00 0.00 0.00 92 1018.0
20260902063523 72 0 0.0 1.7 0.00 0.00 0.00 92 1017.9
20260902063042 72 0 0.0 0.9 0.00 0.00 0.00 92 1018.0
20260902062520 72 0 0.0 0.9 0.00 0.00 0.00 91 1018.0
20260902062018 72 137 0.0 1.7 0.00 0.00 0.00 91 1018.0
20260902061546 72 0 0.0 1.7 0.00 0.00 0.00 91 1018.0
20260902061024 72 0 0.0 1.7 0.00 0.00 0.00 91 1018.0
20260902060519 72 178 0.0 1.7 0.00 0.00 0.00 91 1018.0
20260902060043 72 137 0.0 3.5 0.00 0.00 0.00 91 1018.0
20260902055518 72 178 0.9 3.5 0.00 0.00 0.00 91 1018.0
20260902055019 72 162 0.9 3.5 0.00 0.00 0.00 90 1018.0
20260902054543 72 165 0.9 2.6 0.00 0.00 0.00 90 1018.0
20260902054028 72 188 0.9 3.5 0.00 0.00 0.00 90 1018.0
20260902053530 72 178 0.9 3.5 0.00 0.00 0.00 90 1018.1
20260902053042 72 165 0.9 1.7 0.00 0.00 0.00 90 1018.1
20260902052523 73 153 0.0 1.7 0.00 0.00 0.00 90 1018.1
20260902052018 73 162 0.9 1.7 0.00 0.00 0.00 90 1018.0
20260902051545 73 153 0.0 1.7 0.00 0.00 0.00 90 1018.0
20260902051018 73 178 0.0 0.9 0.00 0.00 0.00 90 1018.1
20260902050522 73 0 0.0 1.7 0.00 0.00 0.00 89 1018.1
20260902050049 73 0 0.0 1.7 0.00 0.00 0.00 89 1018.0
20260902045518 73 0 0.0 1.7 0.00 0.00 0.00 89 1018.0
20260902045024 74 0 0.0 1.7 0.00 0.00 0.00 89 1018.0
20260902044548 74 137 0.0 1.7 0.00 0.00 0.00 88 1018.0
20260902044027 74 162 0.0 1.7 0.00 0.00 0.00 88 1018.1
20260902043519 74 0 0.0 1.7 0.00 0.00 0.00 87 1017.9
20260902043050 74 137 0.0 2.6 0.00 0.00 0.00 87 1018.0
20260902042520 74 178 0.9 2.6 0.00 0.00 0.00 86 1017.9
20260902042025 74 193 0.9 2.6 0.00 0.00 0.00 86 1018.1
20260902041541 74 162 0.9 1.7 0.00 0.00 0.00 86 1018.0
20260902041024 74 178 0.9 1.7 0.00 0.00 0.00 86 1018.0
20260902040528 74 178 0.9 1.7 0.00 0.00 0.00 86 1018.1
20260902040043 74 158 0.9 1.7 0.00 0.00 0.00 86 1018.1
20260902035518 75 178 0.9 1.7 0.00 0.00 0.00 86 1018.1
20260902035018 75 153 0.9 1.7 0.00 0.00 0.00 85 1018.1
20260902034544 75 178 0.9 1.7 0.00 0.00 0.00 85 1018.1
20260902034020 75 178 0.0 1.7 0.00 0.00 0.00 85 1018.0
20260902033519 75 178 0.9 1.7 0.00 0.00 0.00 85 1018.1
20260902033044 75 169 0.9 1.7 0.00 0.00 0.00 85 1018.1
20260902032518 75 153 0.9 1.7 0.00 0.00 0.00 85 1018.0
20260902032026 76 178 0.9 1.7 0.00 0.00 0.00 85 1018.0
20260902031542 76 162 0.9 1.7 0.00 0.00 0.00 85 1018.0
20260902031027 76 153 0.0 1.7 0.00 0.00 0.00 85 1018.0
20260902030521 76 153 0.0 0.9 0.00 0.00 0.00 84 1018.0
20260902030039 77 0 0.0 3.5 0.00 0.00 0.00 83 1018.1
20260902025519 77 146 0.0 3.5 0.00 0.00 0.00 82 1018.0
20260902025020 77 153 0.0 3.5 0.00 0.00 0.00 82 1018.0
20260902024544 77 0 0.9 4.3 0.00 0.00 0.00 81 1017.9
20260902024019 78 205 1.7 4.3 0.00 0.00 0.00 80 1017.9
20260902023519 78 169 1.7 4.3 0.00 0.00 0.00 79 1017.9
20260902023048 78 144 1.7 4.3 0.00 0.00 0.00 79 1017.9
20260902022535 78 171 1.7 4.3 0.00 0.00 0.00 79 1017.9
20260902022024 79 178 1.7 4.3 0.00 0.00 0.00 78 1017.9
20260902021541 79 193 1.7 4.3 0.00 0.00 0.00 78 1017.9
20260902021024 79 171 1.7 4.3 0.00 0.00 0.00 78 1017.9
20260902020519 79 196 1.7 3.5 0.00 0.00 0.00 77 1017.8
20260902020037 79 178 0.9 3.5 0.00 0.00 0.00 76 1017.8
20260902015518 80 178 1.7 3.5 0.00 0.00 0.00 75 1017.8
20260902015023 80 178 0.9 4.3 0.00 0.00 0.00 75 1017.8
20260902014545 80 157 1.7 4.3 0.00 0.00 0.00 74 1017.8
20260902014019 80 178 1.7 4.3 0.00 0.00 0.00 74 1017.9
20260902013522 81 193 1.7 4.3 0.00 0.00 0.00 74 1017.8
20260902013042 81 178 0.9 3.5 0.00 0.00 0.00 74 1017.8
20260902012519 81 178 0.9 3.5 0.00 0.00 0.00 73 1017.6
20260902012021 81 179 0.9 3.5 0.00 0.00 0.00 72 1017.6
20260902011552 81 188 0.9 3.5 0.00 0.00 0.00 72 1017.5